AB5PM Weather Reports


time (UTC)temp
F
wind
direction
speed
knots
gust
knots
rain 1hr
in
rain 24hr
in
rain mn
in
humidity
%
barometer
mb
20260906211516 102 103 1.7 6.1 0.00 0.00 0.00 40 1012.5
20260906210024 101 119 1.7 8.7 0.00 0.00 0.00 40 1012.7
20260906204526 101 121 2.6 7.0 0.00 0.00 0.00 40 1012.9
20260906203031 101 100 2.6 8.7 0.00 0.00 0.00 40 1013.1
20260906201512 100 79 1.7 8.7 0.00 0.00 0.00 41 1013.2
20260906200017 100 103 0.9 7.0 0.00 0.00 0.00 42 1013.5
20260906194526 100 165 3.5 10.4 0.00 0.00 0.00 42 1013.5
20260906193027 99 36 2.6 7.8 0.00 0.00 0.00 44 1013.7
20260906191534 100 96 1.7 7.0 0.00 0.00 0.00 44 1013.9
20260906190014 99 112 2.6 10.4 0.00 0.00 0.00 45 1014.1
20260906184521 99 54 3.5 8.7 0.00 0.00 0.00 45 1014.2
20260906183030 99 133 0.9 7.8 0.00 0.00 0.00 46 1014.4
20260906181533 99 59 2.6 8.7 0.00 0.00 0.00 46 1014.5
20260906180036 98 73 0.9 6.1 0.00 0.00 0.00 47 1014.6
20260906174517 98 185 1.7 6.1 0.00 0.00 0.00 48 1015.0
20260906173023 97 119 1.7 7.0 0.00 0.00 0.00 48 1015.2
20260906171530 96 191 1.7 7.0 0.00 0.00 0.00 48 1015.4
20260906170011 96 67 0.9 5.2 0.00 0.00 0.00 50 1015.5
20260906164514 95 114 0.9 7.0 0.00 0.00 0.00 51 1015.4
20260906163020 95 102 1.7 7.0 0.00 0.00 0.00 53 1015.5
20260906161533 94 103 3.5 7.0 0.00 0.00 0.00 53 1015.4
20260906160029 93 104 1.7 6.1 0.00 0.00 0.00 55 1015.3
20260906154516 92 103 0.9 5.2 0.00 0.00 0.00 56 1015.4
20260906153019 91 147 0.0 5.2 0.00 0.00 0.00 62 1015.5
20260906151522 90 109 0.0 5.2 0.00 0.00 0.00 66 1015.2
20260906150026 89 82 0.9 5.2 0.00 0.00 0.00 68 1015.0
20260906144533 87 92 0.0 2.6 0.00 0.00 0.00 70 1015.1
20260906143008 86 92 0.0 3.5 0.00 0.00 0.00 73 1015.2
20260906141504 84 186 0.0 1.7 0.00 0.00 0.00 77 1015.4
20260906140002 82 186 0.0 1.7 0.00 0.00 0.00 81 1015.2
20260906134507 80 186 0.0 0.0 0.00 0.00 0.00 85 1015.0
20260906133022 79 188 0.0 0.0 0.00 0.00 0.00 87 1015.1
20260906131510 78 188 0.0 0.0 0.00 0.00 0.00 88 1015.2
20260906130006 77 188 0.0 0.9 0.00 0.00 0.00 87 1015.1
20260906124503 77 188 0.0 0.9 0.00 0.00 0.00 86 1014.8
20260906123011 77 188 0.0 0.9 0.00 0.00 0.00 85 1014.9
20260906121514 77 188 0.0 0.0 0.00 0.00 0.00 84 1014.9
20260906120013 78 188 0.0 0.0 0.00 0.00 0.00 83 1014.6
20260906114507 78 188 0.0 0.0 0.00 0.00 0.00 82 1014.5
20260906113011 78 188 0.0 0.0 0.00 0.00 0.00 82 1014.4
20260906111512 78 188 0.0 0.0 0.00 0.00 0.00 82 1014.2
20260906110015 79 188 0.0 0.0 0.00 0.00 0.00 81 1014.1
20260906104533 79 188 0.0 0.0 0.00 0.00 0.00 81 1014.0
20260906103013 79 188 0.0 0.0 0.00 0.00 0.00 80 1013.9
20260906101510 80 188 0.0 0.0 0.00 0.00 0.00 80 1013.8
20260906100024 80 188 0.0 0.0 0.00 0.00 0.00 79 1013.8
20260906094517 80 188 0.0 0.0 0.00 0.00 0.00 79 1013.7
20260906093023 81 188 0.0 0.9 0.00 0.00 0.00 78 1013.4
20260906091513 81 188 0.0 0.0 0.00 0.00 0.00 78 1013.6
20260906090016 81 188 0.0 1.7 0.00 0.00 0.00 78 1013.3
20260906084516 81 190 0.9 4.3 0.00 0.00 0.00 78 1013.3
20260906083018 81 190 0.0 2.6 0.00 0.00 0.00 77 1013.1
20260906081520 82 184 0.0 4.3 0.00 0.00 0.00 76 1013.1
20260906080010 82 186 0.0 2.6 0.00 0.00 0.00 75 1013.2
20260906074515 82 186 0.0 1.7 0.00 0.00 0.00 74 1013.3
20260906073024 82 186 0.9 2.6 0.00 0.00 0.00 73 1013.1
20260906071524 83 186 0.0 3.5 0.00 0.00 0.00 72 1013.3
20260906070017 83 185 0.0 2.6 0.00 0.00 0.00 71 1013.6
20260906064513 83 185 0.9 3.5 0.00 0.00 0.00 70 1013.5
20260906063014 84 180 0.0 2.6 0.00 0.00 0.00 69 1013.6
20260906061527 84 179 0.9 4.3 0.00 0.00 0.00 69 1013.5
20260906060028 84 173 0.0 2.6 0.00 0.00 0.00 68 1013.6
20260906054508 84 180 0.0 2.6 0.00 0.00 0.00 68 1013.7
20260906053029 85 180 0.0 3.5 0.00 0.00 0.00 68 1013.5
20260906051531 85 177 0.0 3.5 0.00 0.00 0.00 68 1013.4
20260906050035 85 175 0.0 6.1 0.00 0.00 0.00 68 1013.5
20260906044530 85 184 0.9 4.3 0.00 0.00 0.00 67 1013.6
20260906043029 85 176 0.9 4.3 0.00 0.00 0.00 67 1013.7
20260906041530 86 178 0.0 3.5 0.00 0.00 0.00 66 1013.5
20260906040025 86 196 0.9 4.3 0.00 0.00 0.00 66 1013.5
20260906034545 86 198 0.0 5.2 0.00 0.00 0.00 65 1013.6
20260906033027 87 169 0.9 6.1 0.00 0.00 0.00 65 1013.5
20260906031559 87 183 1.7 7.0 0.00 0.00 0.00 64 1013.6
20260906030032 87 182 1.7 6.1 0.00 0.00 0.00 63 1013.6
20260906024549 87 122 0.9 7.0 0.00 0.00 0.00 62 1013.5
20260906023010 88 130 2.6 6.1 0.00 0.00 0.00 61 1013.3
20260906021510 89 116 0.9 8.7 0.00 0.00 0.00 59 1013.1
20260906020020 90 143 2.6 8.7 0.00 0.00 0.00 57 1012.9
20260906014524 91 185 2.6 8.7 0.00 0.00 0.00 55 1012.7
20260906013028 93 161 2.6 6.1 0.00 0.00 0.00 53 1012.5
20260906011510 94 157 1.7 7.0 0.00 0.00 0.00 51 1012.2
20260906010037 95 114 1.7 7.0 0.00 0.00 0.00 46 1011.9
20260906004524 96 107 0.0 3.5 0.00 0.00 0.00 45 1011.8
20260906003029 97 109 0.9 5.2 0.00 0.00 0.00 44 1011.8
20260906001536 98 91 0.9 3.5 0.00 0.00 0.00 42 1011.8
20260906000018 99 115 0.9 6.1 0.00 0.00 0.00 41 1011.8
20260905234518 100 98 0.9 3.5 0.00 0.00 0.00 40 1011.6
20260905233025 101 101 0.0 4.3 0.00 0.00 0.00 40 1011.7
20260905231531 101 107 0.9 6.1 0.00 0.00 0.00 38 1011.7
20260905230035 102 117 0.9 3.5 0.00 0.00 0.00 38 1011.6
20260905224519 102 90 0.9 7.8 0.00 0.00 0.00 38 1011.6